Tracking 28790 objects as of 19-Apr-2024
HD Live streaming from Space Station
objects crossing your sky now

SL-16 DEB

Track SL-16 DEB now!
10-day predictions


NORAD ID: 22614
Int'l Code: 1993-016Y
Perigee: 846.2 km
Apogee: 1,036.2 km
Inclination: 71.0 °
Period: 103.7 minutes
Semi major axis: 7312 km
RCS: 0.0064 m2 (small)
Launch date: March 26, 1993
Source: Commonwealth of Independent States (former USSR) (CIS)
Launch site: TYURATAM MISSILE AND SPACE COMPLEX (TTMTR)

Note: This is SATELLITE DEBRIS
Your satellite tracking list
Your tracking list is empty




NASA's NSSDC Master Catalog

Two Line Element Set (TLE):
1 22614U 93016Y   24109.76259793  .00001454  00000-0  11672-2 0  9991
2 22614  70.9990 253.2558 0129942 224.9041 261.4636 13.88460580570722
Source of the keplerian elements: AFSPC